Weather History for Wausau, WI

Change the Weather History Date:

Tuesday, December 4, 2012

  Actual Average Record
Temperature  
Mean Temperature 31 °F 23 °F  
Max Temperature 42 °F 30 °F 58 °F (2001)
Min Temperature 20 °F 16 °F -7 °F (1991)
Degree Days  
Heating Degree Days 34 42  
Month to date heating degree days 103 166  
Since 1 July heating degree days 1872 2025  
Cooling Degree Days 0 0  
Month to date cooling degree days 0 0  
Year to date cooling degree days 725 407  
Moisture  
Dew Point 21 °F    
Average Humidity 61    
Maximum Humidity 76    
Minimum Humidity 46    
Precipitation  
Precipitation 0.00 in 0.05 in 0.40 in (1953)
Month to date precipitation 0.10 0.21  
Year to date precipitation 27.95 31.26  
Snow  
Snow 0.00 in 0.40 in 4.00 in (1987)
Month to date snowfall 0.0 1.6  
Since 1 July snowfall 2.3 9.9  
Snow Depth 0.00 in    
Sea Level Pressure  
Sea Level Pressure 30.08 in    
Wind  
Wind Speed 14 mph (WNW)    
Max Wind Speed 25 mph    
Max Gust Speed 32 mph    
Visibility 10 miles    
Events      
T = Trace of Precipitation, MM = Missing Value Source: NWS Daily Summary

Daily Weather History Graph

Daily Weather History Graph

Search for Another Location

Airport:

Trip Planner

Search our weather history database for the weather conditions in past years. The results will help you decide how hot, cold, wet, or windy it might be!

Date:

Astronomy

Dec. 04, 2012 Rise Set
Actual Time 7:20 AM CST 4:17 PM CST
Civil Twilight 6:46 AM CST 4:50 PM CST
Nautical Twilight 6:10 AM CST 5:27 PM CST
Astronomical Twilight 5:34 AM CST 6:03 PM CST
Moon 10:15 PM CST (12/4) 11:05 AM CST (12/4)
Length of Visible Light 10h 04m
Length of Day
8h 57m
Waning Gibbous, 69% of the Moon is Illuminated
Dec 4
Waning Gibbous
Dec 6
Last Quarter
Dec 13
New
Dec 19
First Quarter
Dec 28
Full

Hourly Weather History & Observations

Time (CST) Temp. Windchill Dew Point Humidity Pressure Visibility Wind Dir Wind Speed Gust Speed Precip Events Conditions
12:54 AM 41.0 °F 34.3 °F 33.1 °F 73% 29.86 in 10.0 mi WSW 11.5 mph - N/A   Clear
1:54 AM 39.9 °F 32.5 °F 32.0 °F 73% 29.87 in 10.0 mi West 12.7 mph 19.6 mph N/A   Clear
2:54 AM 41.0 °F 33.5 °F 30.0 °F 65% 29.88 in 10.0 mi WSW 13.8 mph 19.6 mph N/A   Clear
3:54 AM 39.0 °F 31.8 °F 28.9 °F 67% 29.88 in 10.0 mi West 11.5 mph - N/A   Clear
4:54 AM 39.0 °F 31.4 °F 28.0 °F 65% 29.89 in 10.0 mi West 12.7 mph - N/A   Clear
5:54 AM 37.9 °F 30.5 °F 28.0 °F 68% 29.93 in 10.0 mi West 11.5 mph - N/A   Clear
6:54 AM 37.0 °F 28.1 °F 27.0 °F 67% 29.96 in 10.0 mi WSW 15.0 mph - N/A   Clear
7:54 AM 36.0 °F 27.5 °F 27.0 °F 70% 29.98 in 10.0 mi WSW 12.7 mph 21.9 mph N/A   Clear
8:54 AM 37.0 °F 28.5 °F 26.1 °F 65% 30.00 in 10.0 mi West 13.8 mph 24.2 mph N/A   Clear
9:54 AM 37.0 °F 27.4 °F 25.0 °F 62% 30.02 in 10.0 mi West 17.3 mph - N/A   Clear
10:54 AM 37.9 °F 27.6 °F 24.1 °F 57% 30.03 in 10.0 mi West 20.7 mph 27.6 mph N/A   Clear
11:54 AM 37.9 °F 27.3 °F 23.0 °F 55% 30.02 in 10.0 mi West 21.9 mph 31.1 mph N/A   Clear
12:54 PM 37.9 °F 27.6 °F 21.9 °F 53% 30.04 in 10.0 mi West 20.7 mph 28.8 mph N/A   Clear
1:54 PM 37.0 °F 26.4 °F 21.0 °F 52% 30.07 in 10.0 mi West 20.7 mph - N/A   Clear
2:54 PM 35.1 °F 24.8 °F 18.0 °F 50% 30.10 in 10.0 mi WNW 17.3 mph 25.3 mph N/A   Clear
3:54 PM 32.0 °F 19.5 °F 17.1 °F 54% 30.15 in 10.0 mi WNW 21.9 mph 27.6 mph N/A   Clear
4:54 PM 30.0 °F 19.5 °F 15.1 °F 54% 30.17 in 10.0 mi NW 13.8 mph - N/A   Clear
5:54 PM 28.0 °F 19.3 °F 10.9 °F 49% 30.21 in 10.0 mi WNW 9.2 mph - N/A   Clear
6:54 PM 27.0 °F 15.2 °F 9.0 °F 47% 30.25 in 10.0 mi NW 15.0 mph 24.2 mph N/A   Clear
7:54 PM 25.0 °F 14.2 °F 9.0 °F 51% 30.27 in 10.0 mi NNW 11.5 mph 24.2 mph N/A   Clear
8:54 PM 23.0 °F 11.7 °F 10.0 °F 58% 30.30 in 10.0 mi NNW 11.5 mph 23.0 mph N/A   Clear
9:54 PM 21.9 °F 9.8 °F 10.0 °F 60% 30.32 in 10.0 mi NNW 12.7 mph 18.4 mph N/A   Clear
10:54 PM 21.0 °F 14.6 °F 10.9 °F 65% 30.34 in 10.0 mi NNW 4.6 mph - N/A   Clear
11:54 PM 19.9 °F 13.4 °F 10.9 °F 68% 30.37 in 10.0 mi NW 4.6 mph - N/A   Clear